Regional Weather Roundup
Issued by NWS

Home | Current Version | Previous Version | Text Only | Print | Product List | Glossary Off
Versions: 1 2 3 4 5 6 7 8 9 10 11 12 13 14 15 16 17 18 19 20 21 22 23 24 25 26 27 28 29 30 31 32 33 34 35 36 37 38 39 40 41 42 43 44 45 46 47 48 49 50

000
ASUS45 KCYS 292110
RWRWY

WYOMING REGIONAL WEATHER ROUNDUP
NATIONAL WEATHER SERVICE CHEYENNE WY
300 PM MDT WED JUL 29 2015

NOTE:  "FAIR" INDICATES FEW OR NO CLOUDS BELOW 12,000 FEET
WITH NO SIGNIFICANT WEATHER AND/OR OBSTRUCTIONS TO VISIBILITY.

WYZ001-292200-
YELLOWSTONE NATIONAL PARK

CITY           SKY/WX    TMP DP  RH WIND       PRES   REMARKS
LK YELLOWSTONE   N/A     61  36  39 E7        30.47F
W YELLOWSTONE  NOT AVBL

$$
WYZ002>013-054>058-071-098>099-292200-
NORTHERN WYOMING

CITY           SKY/WX    TMP DP  RH WIND       PRES   REMARKS
JACKSON        FAIR      70  36  28 W3        30.39F
CODY           FAIR      77  34  20 E10G16    30.26F
GREYBULL       FAIR      80  27  14 VRB3      30.23F
WORLAND        FAIR      81  21  11 MISG      30.24F
SHERIDAN       FAIR      81  34  18 CALM      30.23F
BUFFALO        FAIR      79  33  19 NE7       30.28F
GILLETTE       FAIR      78  31  17 VRB5      30.25F
HULETT         FAIR      77  36  22 W9G18     30.27S
NEWCASTLE      FAIR      77  32  19 SW10      30.26F

$$
WYZ014>020-022>026-101>103-292200-
CENTRAL WYOMING

CITY           SKY/WX    TMP DP  RH WIND       PRES   REMARKS
BIG PINEY      FAIR      75  23  14 VRB7      30.41F
PINEDALE       FAIR      70  19  14 NW6       30.43S
DUBOIS         FAIR      73  19  13 N16       30.38S
LANDER         FAIR      79  32  18 VRB7      30.28F
RIVERTON       FAIR      75  28  17 MISG      30.31F
CASPER         FAIR      81  18   9 NW13      30.29F
DOUGLAS        FAIR      81  35  19 NW7       30.28F

$$
WYZ021-027>030-104>119-292200-
SOUTHERN WYOMING

CITY           SKY/WX    TMP DP  RH WIND       PRES   REMARKS
EVANSTON       FAIR      77  13   9 SW9       30.42F
KEMMERER       FAIR      73  18  12 W3        30.43F
FORT BRIDGER   CLEAR     79  18  10 N8        30.44F
ROCK SPRINGS   FAIR      74  20  13 VRB3      30.39F
DIXON          FAIR      80  17   9 W9        30.39F
RAWLINS        FAIR      78  16   9 VRB7      30.38F
SARATOGA       FAIR      77  23  13 NE9       30.39F
LARAMIE        FAIR      76  26  15 N8        30.38F
CHEYENNE       FAIR      79  47  32 E7        30.33F
TORRINGTON     FAIR      82  48  30 SE7       30.23F
PINE BLUFFS    FAIR      81  45  28 SW13G20   30.29F

$$


USA.gov is the U.S. government's official web portal to all federal, state and local government web resources and services.